Vorticity
8 6 7 7 7 8 11 14 12 7 6 10 11 12 12 12 8 10 11 10 11 14 16 16 15 15 14
7 8 9 9 9 8 11 14 16 19 11 8 9 9 11 10 9 8 7 8 10 10 13 12 13 13 11
8 8 9 8 8 8 8 10 10 11 14 12 10 9 10 12 13 12 11 11 10 8 8 8 8 8 9
8 8 8 7 8 7 8 7 8 8 8 8 8 8 8 8 8 7 8 8 8 8 8 8 7 7 6
7 8 8 8 7 7 7 7 7 7 7 6 7 7 7 7 7 7 8 9 9 10 10 10 9 9 9
9 8 7 7 8 7 7 8 8 7 7 7 7 7 7 8 8 8 8 8 8 8 9 9 11 12 14
9 8 9 8 8 8 8 7 7 8 7 8 8 8 8 8 9 9 9 7 7 8 11 12 14 14 14
9 9 9 9 9 8 8 7 8 8 8 8 8 8 9 9 9 8 7 7 10 12 13 14 15 14 13
10 11 10 10 9 9 9 8 7 8 8 8 9 9 9 9 8 7 8 12 14 14 13 14 13 12 12
10 11 12 12 11 10 10 9 9 9 10 9 9 9 9 8 5 9 11 12 12 12 12 12 12 11 10
9 12 14 13 12 10 10 10 10 10 10 9 9 9 9 6 7 9 10 10 10 11 13 11 10 9 8
7 7 7 11 11 9 11 10 9 9 10 10 10 9 8 5 8 8 8 9 11 11 12 11 9 8 9
16 11 8 6 6 12 11 9 9 9 10 9 8 8 6 6 7 7 6 9 10 11 12 12 9 8 9
9 20 6 7 10 11 11 9 8 9 9 8 9 4 7 4 9 6 5 8 9 11 14 14 10 10 11
17 9 11 6 12 5 6 5 5 8 9 6 1 6 6 6 10 6 5 7 9 12 15 15 9 10 9
14 9 14 14 14 12 1 16 14 6 4 7 9 9 10 8 11 5 6 7 11 14 13 12 6 8 10
9 7 25 24 28 19 3 24 9 9 24 9 21 21 17 10 11 7 5 8 11 12 10 9 9 11 12
Height
3027 3025 3023 3022 3020 3018 3015 3012 3010 3008 3007 3007 3007 3007 3007 3008 3009 3009 3009 3010 3010 3010 3010 3011 3012 3011 3011
3022 3020 3018 3017 3015 3014 3012 3009 3006 3005 3004 3003 3003 3003 3003 3003 3002 3002 3002 3002 3002 3003 3002 3002 3002 3002 3002
3015 3014 3013 3011 3009 3008 3007 3006 3004 3002 3000 2999 2999 2998 2998 2998 2998 2997 2997 2996 2996 2996 2995 2995 2995 2994 2993
3008 3007 3007 3005 3003 3001 3000 2999 2999 2998 2997 2996 2995 2994 2993 2992 2992 2992 2992 2992 2991 2991 2990 2989 2988 2986 2985
3001 2999 2998 2997 2996 2995 2994 2993 2992 2992 2992 2992 2992 2991 2990 2989 2988 2987 2986 2986 2985 2984 2982 2981 2980 2978 2977
2995 2993 2992 2991 2989 2988 2987 2987 2987 2986 2985 2985 2985 2984 2983 2982 2981 2980 2979 2977 2976 2974 2973 2972 2971 2969 2968
2987 2985 2985 2983 2982 2982 2981 2980 2980 2979 2978 2978 2977 2976 2975 2974 2974 2972 2971 2970 2968 2966 2964 2962 2960 2959 2958
2979 2977 2977 2975 2974 2974 2973 2973 2972 2972 2971 2971 2969 2968 2967 2966 2966 2964 2963 2962 2960 2957 2955 2953 2952 2950 2949
2969 2969 2968 2968 2967 2967 2966 2966 2964 2964 2963 2962 2962 2961 2960 2959 2958 2957 2956 2955 2953 2950 2947 2946 2945 2943 2942
2961 2960 2959 2959 2958 2958 2958 2958 2957 2957 2957 2956 2955 2954 2954 2953 2951 2950 2948 2947 2945 2943 2940 2938 2937 2936 2935
2951 2952 2951 2951 2949 2949 2949 2949 2949 2948 2949 2948 2948 2946 2946 2945 2944 2942 2940 2939 2937 2935 2933 2930 2928 2927 2927
2940 2941 2942 2942 2940 2940 2939 2939 2939 2940 2941 2941 2940 2939 2938 2937 2938 2935 2933 2932 2930 2927 2925 2922 2920 2918 2916
2929 2928 2928 2927 2929 2931 2931 2930 2931 2931 2932 2932 2932 2932 2931 2930 2930 2928 2927 2924 2922 2920 2918 2915 2912 2909 2909
2917 2916 2915 2917 2919 2921 2922 2922 2923 2923 2923 2924 2924 2924 2923 2922 2922 2921 2919 2918 2915 2912 2911 2909 2905 2900 2899
2904 2905 2905 2906 2907 2908 2910 2912 2913 2913 2914 2915 2914 2914 2914 2914 2914 2913 2913 2911 2908 2905 2903 2903 2898 2892 2890
2894 2895 2896 2896 2896 2897 2899 2900 2901 2902 2903 2903 2904 2904 2905 2907 2906 2905 2905 2904 2901 2897 2895 2894 2893 2885 2882
2883 2884 2885 2886 2886 2888 2890 2891 2891 2892 2893 2895 2895 2896 2897 2898 2898 2897 2897 2896 2894 2891 2888 2885 2884 2880 2875